Aérodrome :
LOGIN :

S'inscrire | Disclaimer

   EN    FR    IT 

 










Légende :    VFR   VFR Marginal   IFR   IFR Intensif   IFR Très Intensif
Visi : 
Plafond : 
>= 8 km
>= 3000ft
5 à 8 km
1000 à 3000 ft
1500m à 5 km
500 à 1000 ft
800 à 1500m
200 à 500 ft
< 800m
< 200 ft
Symboles :   Orages  Brouillard  Fortes neiges  Fortes précipitations  Vent > 20 kt
SIGMETs :   Divers  Orages  Givrage  Turbulence  Onde Orograph.  Cendres Volcan.







- Altitude de l'aérodrome : 374 ft
- Code IATA : LIS


LPPT - Lisboa Portela

DERNIER METAR :
  • 130500Z 35008KT CAVOK 10/08 Q1022

METARs EXPIRÉS :
  • 130430Z 33009KT CAVOK 11/09 Q1021
  • 130400Z 32007KT CAVOK 11/09 Q1021
  • 130330Z 32006KT CAVOK 11/09 Q1022
  • 130300Z 31007KT CAVOK 11/09 Q1022
  • 130230Z 32007KT CAVOK 11/09 Q1022

TAF TAF LPPT
Valide du 13 à 00h jusqu'au 14 à 06h UTC


122330Z 1300/1406 34010KT CAVOK
BECMG 1306/1309 03008KT
BECMG 1315/1318 34010KT
BECMG 1321/1324 03008KT
Pas de NOTAMs connus pour ce terrain.



MET'MAP, la Météo Aéronautique d'un coup d'oeil ! - Copyright ORBIFLY Décembre 2007 - Disclaimer

ORBIFLY MET'MAP TEAM :

Programmation & Développement : Alexandra Zaïnal
Conception & Développement : Baudouin d'Aumeries
Co-Programmation & Développement : Marc-Olivier Méhu
Soutien technique & logistique : Manuel Goepfert

Contact : metmap@orbifly.com




SOURCES & CREDITS :

   NOAA